STARLINK-1020

Last updated on Dec. 12, 2019, 12:02 a.m. UTC

1 44725U 19074N   19345.58335648  .00069142  00000-0  49284-3 0  9999
2 44725  53.0091  21.5397 0002187  20.2936  20.3120 15.73201776  4730
UTC
Height (km)
Latitude
Longitude
Inclination
Orbital Period
UTC large
Height (km)
Speed (km/s)
/
Latitude / Longitude
Inclination (degrees)
Orbital Period (minutes)
Azimuth
Elevation
Range (km)
Doppler Factor
iOS Compass Heading
iOS Angle

Next 30 passes for location: Hong Kong

Rise time Rise Azimuth (degrees) Set time Set Azimuth (degrees) Duration Max altitude (degrees)

No matching passes for this satellites